Starlink 31501

operational
NORAD ID: 59359 Int'l Des: 2024-060 Owner: SPXS Country: US Constellation: starlink
LEOCIRCULAR

About Starlink 31501

Description loading...

Live Position

Loading 3D Globe...

Upcoming Passes

Altitude History

Altitude vs Time

uPlot chart will show altitude changes over time

Two-Line Element Set

1 59359U 24060M 25305.16342024 -.00001306 00000-0 -37934-4 0 9992
2 59359 43.0050 265.9482 0001669 262.5965 97.4697 15.27578386 90405
Epoch: Nov 1, 2025 • Age: 35 hours

Current Status

Altitude 485.4 km
Velocity 7.62 km/s
Sub-Earth Point -14.25°S, 178.66°W
Launch Date Mar 31, 2024
Age 1.5 years
Type internet

Technical Details

Classification Payload
Mass 730.00 kg
Dry Mass 700.00 kg
Total Mass 730.00 kg
Length 0.30 m
Diameter 4.10 m
Span 29.00 m
Shape Box + pan
Manufacturer SPXS
Bus Type Starlink V2M
Phase Status In Orbit
Owner/State SPXS/US

Large Constellations

Loading constellations...